Location: Burzi?i
(45.0869°N, 16.0577°E)
Time: 12:09:14
(UTC+00:00)

Cosmos 1939 Rocket - Pass Details

Date: 29 October 2020
Orbit: 532 x 584 km, 97.4° (Epoch: 27 November)

Event Time Altitude Azimuth Distance (km) Brightness Sun altitude
Rises 16:53:51 0° 162° (SSE) 2,727 6.3 -12.2°
Reaches altitude 10° 16:56:00 10° 160° (SSE) 1,829 5.3 -12.6°
Maximum altitude 16:59:56 74° 76° (ENE) 573 2.7 -13.3°
Drops below altitude 10° 17:03:51 10° 351° (N) 1,816 5.5 -14.0°
Sets 17:05:58 0° 350° (N) 2,706 6.4 -14.3°
